Location: Clermont
(50.2608°N, 4.3172°E)
Time: 21:56:11
(UTC+00:00)

Cosmos 2333 Rocket - Pass Details

Date: 13 August 2020
Orbit: 837 x 864 km, 70.8° (Epoch: 21 September)

Event Time Altitude Azimuth Distance (km) Brightness Sun altitude
Rises 21:28:55 0° 332° (NNW) 3,457 7.0 -18.6°
Reaches altitude 10° 21:31:32 10° 339° (NNW) 2,516 5.8 -18.9°
Maximum altitude 21:37:02 43° 51° (NE) 1,201 3.0 -19.4°
Enters shadow 21:39:47 26° 105° (ESE) 1,631 3.3 -19.6°
